GFSGL_850_thetae_000.txt.gz
Theta_e
302 301 299 299 299 299 299 299 299 299 299 299 299 299 299 299 299 299 299 299 299 299 299 300 301 301 302 305 307 309 310 308 309 314 313 320 324 324 325 324 323 324 322
301 300 299 299 298 298 298 299 299 299 299 299 299 299 298 299 298 298 298 299 299 299 299 300 301 302 305 306 308 309 308 309 313 312 313 315 324 323 323 323 322 322 319
301 300 299 299 298 298 298 299 299 299 299 299 298 299 298 299 299 299 299 299 299 299 300 300 303 303 305 307 309 310 310 311 314 313 314 316 322 322 323 322 321 319 318
300 299 299 299 298 298 298 298 298 298 299 298 298 298 299 299 299 299 299 299 299 300 301 301 302 305 305 309 311 311 311 315 313 314 315 320 322 320 322 321 318 317 314
299 299 299 299 298 298 298 298 298 299 298 298 298 299 299 299 299 299 300 300 300 300 301 300 303 305 306 309 314 314 313 315 315 314 315 320 321 319 320 319 317 317 314
299 299 299 299 298 298 298 298 298 298 298 298 299 298 299 299 299 299 300 300 300 300 301 301 303 305 308 312 315 315 315 315 315 314 314 319 321 321 320 320 318 321 322
299 299 298 298 298 298 298 298 298 298 298 298 298 298 298 298 299 300 301 301 300 300 301 301 303 305 308 312 315 317 317 316 316 312 315 323 321 321 320 321 321 321 318
299 299 298 298 298 298 298 298 298 298 298 298 298 298 299 299 299 300 300 301 300 300 300 302 303 305 308 311 312 317 318 317 317 314 315 318 323 322 322 321 321 322 320
299 298 298 298 298 298 298 298 298 298 298 297 298 298 299 299 299 300 300 300 300 301 301 301 302 305 308 309 310 313 317 318 319 316 316 319 322 322 321 323 323 323 322
299 298 298 298 298 298 298 298 298 297 297 297 298 299 299 299 299 300 300 300 301 301 302 300 303 306 309 309 311 315 318 318 320 316 315 318 323 323 322 323 323 322 321
299 298 298 298 298 298 298 298 297 297 297 298 298 298 298 298 297 298 300 301 301 302 301 299 304 307 309 311 314 316 320 320 319 316 316 319 324 324 324 324 323 320 318
298 298 298 298 298 298 298 298 297 297 297 298 298 298 297 296 297 298 299 300 301 300 298 300 304 307 309 312 315 318 321 322 317 317 320 325 324 324 324 324 324 320 313
298 298 298 298 298 298 297 298 297 297 297 298 298 297 297 297 297 297 298 299 299 299 298 302 304 306 309 312 313 317 321 323 319 320 321 326 325 325 325 325 324 321 318
298 298 298 298 298 298 298 297 297 297 297 297 296 296 296 296 297 297 297 298 298 296 300 304 304 306 308 310 311 317 321 322 323 321 325 326 326 326 326 325 323 322 320
298 298 298 298 297 297 297 297 297 297 297 296 296 296 296 297 297 297 298 299 298 297 302 304 303 305 307 309 311 316 322 323 322 321 325 325 326 326 325 324 322 321 319
298 298 298 298 297 297 297 297 297 297 297 296 296 297 297 296 297 298 299 298 297 300 302 302 302 302 305 307 309 311 321 324 323 322 325 325 326 325 324 321 322 321 319
298 298 298 297 297 297 297 297 297 297 296 296 296 296 296 297 298 297 298 297 299 302 302 301 301 302 304 307 308 309 315 324 324 325 325 325 325 324 322 320 320 320 320
298 298 297 297 297 297 297 297 296 296 296 297 297 297 297 298 297 297 297 298 300 300 301 301 301 302 304 306 308 309 316 324 325 326 326 325 325 323 322 320 319 319 320
298 297 297 297 297 297 296 296 296 296 297 296 296 297 297 297 297 297 297 298 299 299 300 302 301 302 304 306 308 310 314 322 322 326 325 324 324 322 321 320 320 319 319
295 297 297 297 296 296 296 296 296 296 297 295 296 296 297 297 297 296 296 297 299 299 299 301 301 301 304 306 308 310 315 322 324 324 325 323 322 322 321 320 320 320 319
296 296 296 295 296 296 296 297 297 296 296 295 295 295 295 297 297 296 296 296 298 299 299 301 301 300 303 305 307 310 313 318 323 325 324 323 321 321 321 322 322 321 321
295 295 295 296 297 297 296 295 295 294 294 294 294 294 294 295 296 296 296 296 298 299 298 301 300 300 303 305 307 308 310 314 320 324 324 324 323 322 322 322 324 322 322
295 295 295 296 295 294 294 294 294 294 294 294 293 294 294 295 296 296 295 296 297 298 298 300 300 299 303 305 306 307 309 310 317 321 323 325 323 324 323 322 324 325 324
295 295 294 294 293 293 293 293 293 293 294 294 294 294 295 296 295 295 295 296 297 298 299 300 299 299 302 305 306 307 309 310 316 322 324 325 324 325 325 325 325 327 328
294 293 293 293 292 293 292 292 292 293 293 294 294 294 295 294 295 295 295 296 298 298 299 299 298 298 301 304 306 307 310 310 316 323 324 325 326 325 325 327 327 324 327
293 293 292 292 292 292 292 292 292 292 293 293 294 294 294 295 294 295 295 296 298 297 298 298 297 298 300 303 306 307 309 311 316 320 323 324 325 325 325 325 326 326 325

GFSGL_850_thetae_003.txt.gz
Theta_e
305 304 303 301 300 299 298 298 298 298 298 299 299 299 299 299 299 299 299 299 299 299 299 299 299 300 300 301 302 302 303 304 305 306 308 307 310 314 324 326 327 326 324
305 303 302 301 300 299 298 298 298 298 298 298 298 298 298 298 298 299 299 299 299 299 299 299 300 300 301 300 301 303 306 306 307 310 310 308 313 314 323 324 327 325 323
304 303 302 300 300 299 298 298 298 298 298 298 298 298 298 298 298 299 299 299 299 299 300 300 300 300 301 301 301 304 308 309 310 309 309 309 312 314 324 323 325 325 324
304 302 301 300 299 299 298 298 298 297 297 298 298 298 298 298 299 299 299 299 300 300 300 301 301 301 300 302 305 307 310 311 310 309 310 309 312 315 322 325 326 325 326
303 302 301 300 299 298 298 298 297 298 298 298 298 298 298 298 299 299 299 299 300 300 301 301 300 301 301 303 306 308 311 312 311 310 312 313 312 315 320 325 324 325 325
302 301 300 299 299 298 298 297 298 298 298 298 297 297 298 298 298 299 300 300 301 301 301 300 300 301 301 303 306 310 313 314 313 313 313 312 314 316 321 322 323 324 322
302 300 300 299 298 298 298 298 298 298 297 297 297 297 297 298 299 300 301 301 301 301 300 300 301 302 301 305 307 309 312 315 313 314 314 314 314 320 321 321 322 323 321
301 300 299 299 298 298 298 298 298 297 297 297 297 297 297 298 299 300 300 300 300 300 300 301 302 302 302 306 307 309 312 314 316 315 314 315 314 318 320 322 322 322 319
301 300 299 298 298 298 298 298 297 297 297 297 297 297 298 299 298 299 300 299 300 300 300 300 302 301 304 306 307 309 312 315 316 317 316 315 315 320 320 320 321 320 318
300 299 299 298 298 298 298 297 297 297 297 297 296 297 298 298 298 297 298 299 299 299 300 301 300 298 305 307 308 310 314 316 318 317 317 316 316 319 320 321 322 320 318
300 298 298 298 298 298 298 297 297 297 297 297 297 297 298 297 297 297 298 298 299 300 300 299 297 303 304 306 309 312 316 318 318 318 317 319 317 319 320 322 321 320 318
299 298 298 298 298 298 297 297 297 297 297 297 297 297 297 296 295 296 298 298 299 298 299 297 299 303 304 306 310 312 315 319 320 318 318 319 317 320 321 323 322 320 318
299 298 298 298 298 298 297 297 297 297 297 297 297 297 297 295 296 296 296 298 298 299 298 298 301 303 303 306 309 311 315 320 321 320 320 318 317 322 322 323 323 322 320
298 298 298 298 298 298 297 297 297 297 297 297 297 297 296 296 296 296 296 297 298 298 297 299 301 301 303 305 308 310 313 320 322 321 318 318 324 323 322 324 324 323 321
298 298 298 298 298 298 297 297 297 297 297 297 297 296 296 296 296 297 298 298 298 297 298 300 301 301 302 304 307 309 311 320 323 319 318 319 324 324 324 324 324 322 322
298 298 298 298 298 297 297 297 297 297 298 298 297 296 296 297 297 298 298 298 297 298 299 300 300 301 300 302 304 305 310 318 323 322 322 321 325 324 325 325 324 322 322
298 298 298 298 298 297 297 297 298 298 297 296 296 297 296 297 297 298 298 297 297 298 299 299 299 301 300 301 303 304 308 316 321 323 321 325 326 325 325 324 323 322 321
298 298 298 298 297 297 297 297 297 296 296 296 296 295 296 297 297 297 297 297 297 298 299 299 299 301 300 301 304 305 307 313 321 323 321 325 325 326 324 324 322 321 320
297 297 297 296 296 297 297 296 296 296 296 296 296 296 295 296 296 297 297 296 296 297 299 299 299 301 300 301 304 305 306 312 320 324 322 324 326 325 322 322 321 320 319
297 296 295 296 296 296 296 296 296 297 297 296 295 295 295 295 295 296 297 296 296 296 298 299 299 300 300 301 304 306 307 312 320 324 323 323 326 323 321 322 320 319 319
295 294 295 295 295 297 297 298 297 295 295 294 294 294 294 295 294 295 296 296 296 296 298 298 299 300 300 301 303 305 307 310 314 323 326 325 325 323 321 321 320 321 319
294 295 295 295 296 297 296 295 294 294 295 294 294 294 294 294 295 295 296 296 296 296 298 298 299 300 299 300 302 306 307 310 313 320 325 325 323 322 320 320 320 321 319
294 295 295 295 294 294 293 293 293 293 294 294 293 294 294 294 295 295 295 295 296 296 298 298 300 299 298 300 303 306 307 309 311 317 322 324 322 321 320 320 320 320 319
295 295 294 294 293 292 293 293 293 293 293 294 294 294 294 294 295 295 295 295 296 296 298 298 299 298 298 300 302 306 307 309 311 317 321 322 322 322 320 320 320 321 319
294 294 293 292 292 292 292 292 292 292 293 293 294 294 294 294 294 295 294 295 296 297 297 298 298 297 298 299 302 306 308 310 313 318 321 321 321 321 320 320 319 320 320
294 293 292 292 292 292 292 292 292 292 292 293 293 294 294 293 294 294 295 295 296 296 297 298 298 297 297 299 303 307 309 311 314 317 320 322 322 323 321 320 320 320 321

GFSGL_850_thetae_009.txt.gz
Theta_e
313 311 308 306 306 305 305 302 300 299 298 298 297 297 297 297 296 297 297 297 296 298 298 298 299 299 299 299 299 300 300 300 301 301 301 303 303 303 304 305 306 306 312
314 311 308 306 305 305 304 302 300 299 298 298 297 297 297 296 297 297 297 296 296 297 298 299 299 299 299 300 300 300 300 300 302 301 301 304 304 305 305 306 306 306 312
313 311 307 306 305 305 304 302 300 299 298 297 297 297 296 297 297 296 296 295 296 298 299 299 300 300 300 300 300 300 302 303 303 302 302 304 306 306 307 308 308 309 315
313 310 308 306 306 305 303 301 300 299 298 297 297 297 297 297 297 296 295 295 298 299 300 300 300 300 300 300 301 302 302 303 302 303 303 307 306 307 308 308 310 314 318
313 310 308 307 306 304 303 301 300 299 298 297 297 297 297 297 296 295 295 298 300 300 300 300 300 299 300 301 301 302 302 302 303 304 307 308 309 308 309 310 312 315 323
312 310 309 307 306 304 302 301 300 299 298 297 297 297 297 295 295 295 297 300 300 300 300 300 299 297 297 297 299 300 301 302 304 305 309 311 310 309 309 310 314 316 325
312 310 309 307 306 304 302 301 299 298 298 297 297 297 296 295 295 296 299 300 299 299 298 296 297 298 298 299 298 299 302 304 306 307 311 312 312 310 311 310 312 319 325
311 310 309 307 305 303 301 300 299 298 297 297 297 296 295 295 295 296 298 298 297 297 296 297 297 298 298 298 299 301 303 305 306 309 312 313 313 311 313 314 314 317 327
311 310 308 306 304 302 301 300 299 298 297 297 297 295 296 296 296 296 297 297 297 296 297 297 297 297 297 299 301 302 305 305 307 310 312 313 312 312 314 314 318 322 326
310 309 308 305 303 302 301 299 298 298 297 297 296 296 296 296 296 296 297 296 297 297 297 297 297 298 298 300 301 304 303 305 306 310 314 313 313 314 314 317 321 324 324
310 309 306 304 302 301 300 298 298 297 297 296 296 296 296 296 296 297 297 297 297 297 297 297 297 297 298 301 302 302 303 304 306 310 314 314 313 315 315 319 322 322 322
309 307 305 303 301 300 299 298 298 297 297 297 296 296 296 296 297 297 296 296 297 297 297 298 297 297 299 300 300 302 304 304 307 309 314 315 314 314 316 319 322 323 323
307 305 303 301 300 299 298 298 298 297 297 297 296 296 296 297 297 297 296 296 297 297 298 298 297 297 298 299 300 301 304 304 304 308 312 315 316 316 316 319 321 322 323
304 303 301 300 299 298 298 298 297 297 297 297 296 296 296 297 297 296 296 297 298 298 298 297 296 297 298 298 300 302 303 303 302 305 309 315 317 317 317 319 320 321 322
302 300 299 298 298 298 298 298 297 297 297 296 296 297 297 297 296 297 297 297 298 298 298 297 296 297 298 298 300 301 303 303 302 306 311 316 317 317 317 319 320 320 320
300 299 298 298 298 298 298 297 297 297 296 296 297 297 296 295 296 295 295 296 297 297 297 296 296 297 298 298 300 300 302 303 302 306 312 317 318 318 317 319 320 320 320
299 298 298 298 298 298 297 297 297 296 295 297 296 296 295 296 296 295 295 296 296 296 296 296 296 297 298 298 299 299 300 303 302 307 309 317 319 318 317 321 319 318 319
299 298 298 298 298 297 297 297 296 295 295 296 296 296 296 296 295 295 295 295 295 295 296 295 296 297 298 299 299 299 300 303 303 305 310 316 319 318 319 321 320 319 319
298 298 298 298 297 297 297 296 295 296 296 296 296 295 295 294 294 294 294 294 295 295 295 295 296 296 298 298 299 299 300 302 302 303 306 315 320 319 321 322 320 319 319
298 298 298 297 297 297 295 295 295 295 296 296 295 295 294 294 294 294 294 294 295 295 295 295 295 296 298 299 299 299 300 302 302 304 305 314 319 319 322 322 321 319 320
298 297 297 297 295 294 294 296 296 296 295 294 294 294 294 293 294 294 294 294 295 295 295 295 295 296 298 299 298 298 300 301 303 304 308 312 319 321 322 322 321 321 321
297 297 296 294 294 295 295 295 295 294 294 293 293 293 293 293 293 293 294 294 294 294 294 295 295 297 298 298 298 297 299 302 303 304 307 311 318 322 322 322 322 321 321
296 294 294 294 295 295 295 294 293 293 293 293 292 292 293 293 293 294 294 294 294 294 294 295 297 297 298 298 297 297 299 301 303 304 307 311 318 323 323 323 322 321 321
294 294 295 295 294 294 293 292 292 292 292 292 292 292 293 293 293 293 293 293 293 294 295 295 296 296 297 298 297 297 299 302 304 306 309 313 319 322 322 323 323 322 321
295 295 294 294 293 292 292 292 292 292 292 291 291 292 293 293 293 293 293 293 293 295 295 295 295 295 296 297 297 297 300 303 305 307 310 313 317 321 321 322 323 322 322
295 294 294 293 292 292 291 291 292 292 291 291 291 291 292 292 293 293 293 293 293 295 295 295 295 296 297 297 297 298 301 304 306 309 311 314 317 321 321 321 322 323 322

GFSGL_850_thetae_012.txt.gz
Theta_e
314 314 313 312 310 307 305 305 305 303 300 299 298 298 297 297 297 296 296 296 296 296 295 295 296 298 298 299 299 299 300 300 300 299 300 301 302 302 303 305 304 303 303
315 314 313 312 310 307 305 305 304 302 300 299 298 297 297 297 296 296 296 296 296 295 295 296 298 299 300 300 300 300 300 299 300 301 300 302 303 303 304 305 304 304 305
314 314 313 312 310 307 305 305 304 302 300 299 298 297 297 296 296 296 296 296 295 295 296 298 299 300 300 300 300 299 300 300 301 301 302 302 304 302 305 305 306 304 305
314 313 313 313 311 307 306 305 304 302 300 299 298 297 297 296 297 296 296 295 294 296 299 300 300 300 299 299 299 300 300 299 301 301 301 303 303 304 307 306 306 306 307
314 313 313 313 310 307 305 305 304 302 300 299 298 297 297 297 297 296 295 295 295 299 299 299 299 299 299 299 299 299 300 300 300 302 302 304 304 307 307 307 307 308 307
313 314 313 312 310 307 305 305 303 301 299 299 298 297 297 297 296 295 295 297 299 299 298 298 298 296 296 297 298 299 300 300 301 302 305 305 307 310 309 309 309 308 310
311 313 313 311 309 307 306 305 303 301 299 299 298 297 297 297 295 295 295 298 299 298 296 297 296 296 297 297 297 298 299 301 303 304 304 306 308 311 310 310 308 310 312
311 311 312 310 308 306 306 304 302 300 299 299 298 297 297 296 295 295 295 298 297 296 296 296 297 297 297 297 298 299 300 301 304 304 305 306 309 311 312 310 308 313 313
311 312 311 310 308 307 306 304 302 300 299 298 297 297 297 295 295 296 296 296 296 296 296 296 297 297 297 299 299 299 301 303 303 305 306 309 312 312 311 311 310 312 317
311 312 312 310 309 307 306 303 302 300 299 298 297 297 296 295 296 296 296 296 296 296 296 297 297 297 298 299 300 300 301 303 303 305 309 311 314 312 313 314 313 314 317
310 311 311 309 309 307 305 303 301 299 298 297 297 296 296 296 296 296 296 297 296 296 297 297 298 297 298 299 300 299 301 303 304 305 308 312 314 313 314 314 316 315 320
309 310 310 309 308 306 303 301 299 298 298 297 297 296 296 296 296 296 296 296 296 297 297 298 298 297 297 297 298 299 302 303 304 304 307 311 312 314 314 315 318 319 324
307 310 309 308 306 303 302 300 298 298 297 297 296 296 296 295 295 296 297 296 296 297 298 298 298 296 296 297 298 299 302 303 303 304 305 310 313 315 314 316 319 319 324
307 308 308 305 303 302 300 299 298 297 297 297 296 296 295 295 296 296 296 296 296 297 297 298 297 296 296 297 298 298 301 302 302 302 305 309 313 314 315 316 319 321 321
306 306 304 303 301 299 298 298 298 297 297 297 296 296 295 296 296 296 296 296 296 297 297 297 296 296 295 297 298 298 300 302 302 302 305 308 312 315 316 316 319 321 320
304 302 301 300 299 298 298 298 297 297 297 297 296 295 296 296 296 296 296 295 295 295 296 296 296 295 295 297 298 298 300 301 302 302 304 308 313 315 317 318 319 320 320
300 299 299 298 298 298 298 298 297 297 297 296 295 296 296 295 296 296 296 295 295 295 296 296 296 295 296 297 298 299 300 301 302 302 303 307 312 316 317 317 319 320 321
301 301 298 298 298 298 298 297 297 297 296 295 296 296 296 296 295 295 294 294 294 294 294 295 295 295 296 297 297 298 299 301 302 302 303 306 312 315 317 318 319 319 320
299 298 298 298 298 297 297 297 297 296 295 295 296 296 295 295 294 294 294 294 294 294 295 295 295 295 295 296 298 298 298 300 302 302 303 306 310 314 318 317 318 318 319
298 298 298 298 297 297 297 297 295 295 295 296 296 295 294 294 294 293 294 294 294 294 294 294 294 294 295 296 298 298 298 300 301 302 303 304 307 315 319 318 318 318 319
298 298 298 297 297 297 296 295 295 296 296 296 295 294 294 294 293 294 293 293 294 294 294 294 294 295 295 297 298 298 298 299 301 302 303 304 308 316 319 318 318 319 318
298 298 297 297 296 294 295 295 296 295 294 294 293 293 293 293 293 293 293 293 294 294 294 294 294 295 297 297 298 298 297 298 300 302 303 304 307 314 319 320 319 319 318
297 297 296 295 294 295 295 295 294 293 293 293 292 292 292 293 293 293 293 293 293 293 293 294 295 296 296 296 297 297 297 297 300 302 304 305 309 315 318 319 319 319 319
297 295 294 295 295 295 294 293 292 292 292 292 292 292 292 292 293 293 293 293 293 293 293 295 295 295 295 295 296 297 297 297 300 303 305 307 311 314 319 319 319 320 319
294 294 295 294 294 293 292 292 292 292 292 291 291 291 292 292 292 293 293 293 292 293 293 295 295 295 295 295 297 297 297 299 301 304 306 309 312 314 319 320 320 320 319
295 295 294 294 292 292 291 291 291 291 291 291 291 291 291 291 291 292 293 292 292 294 295 295 295 295 295 296 297 297 298 300 303 305 308 310 312 314 317 319 320 320 319

GFSGL_850_thetae_015.txt.gz
Theta_e
310 311 313 314 314 312 311 309 307 306 306 304 301 299 299 298 298 297 297 296 296 296 296 296 294 295 296 298 299 300 300 300 300 300 300 300 301 301 302 301 303 304 304
311 310 310 312 313 312 310 309 307 306 305 304 301 299 298 298 297 297 296 296 296 296 295 294 294 297 298 300 300 300 299 299 299 299 300 300 300 300 302 303 304 304 305
309 310 309 310 312 312 310 308 306 305 305 302 300 299 298 297 297 297 296 296 296 295 294 294 296 299 299 300 300 299 299 299 299 299 299 299 300 301 303 303 304 304 306
308 308 309 309 311 311 310 308 306 305 305 302 300 299 298 297 297 296 296 296 295 295 294 296 298 299 299 299 299 299 299 299 299 300 300 300 300 303 304 304 305 306 306
308 307 308 309 310 310 309 308 305 305 304 302 300 299 298 297 297 297 297 296 295 295 295 297 298 298 298 299 298 299 299 299 299 300 300 300 302 303 305 304 307 306 306
308 307 307 307 309 310 309 307 305 304 304 301 300 299 298 297 297 297 296 295 295 296 297 297 296 296 296 296 298 299 299 299 300 299 300 302 304 304 305 306 307 307 307
308 307 307 306 307 309 308 306 305 304 303 301 300 299 298 297 297 297 296 295 295 295 296 296 296 296 297 297 297 298 298 298 300 301 302 303 304 306 305 306 309 309 308
307 307 306 307 306 307 308 306 305 304 303 301 300 299 298 297 297 296 295 295 295 295 296 296 296 296 296 297 298 298 299 299 300 301 303 304 304 305 307 308 310 310 308
306 307 306 307 307 307 308 306 304 305 302 301 300 298 298 297 297 295 295 295 295 296 296 296 296 296 297 299 299 299 299 299 300 304 304 304 307 308 312 311 311 309 309
306 306 306 306 307 307 307 306 305 304 302 300 299 298 297 297 296 295 295 295 295 296 296 296 297 297 298 299 299 299 300 299 304 303 305 307 310 313 312 311 310 309 313
304 305 305 306 306 307 307 306 305 304 302 300 298 298 297 297 296 295 295 295 296 297 296 296 297 297 298 299 299 299 299 302 303 304 305 306 309 314 314 314 313 312 314
305 304 305 306 305 306 306 305 305 303 300 299 298 297 297 296 296 295 295 296 297 298 297 297 298 298 298 296 296 297 299 302 303 304 303 304 308 314 314 315 314 315 314
305 303 303 304 304 306 306 305 304 302 299 298 298 297 297 296 296 295 295 296 296 296 296 297 298 298 296 296 296 297 298 301 302 302 302 305 309 313 314 315 317 317 316
304 303 304 303 303 304 305 305 303 300 298 298 297 297 296 296 295 295 296 296 296 296 296 297 298 297 296 295 296 297 298 301 301 302 303 307 310 314 314 316 318 317 319
301 302 300 305 303 304 305 303 301 299 299 298 297 296 296 295 295 296 296 296 296 296 297 297 296 296 296 295 296 297 297 300 301 303 303 307 310 313 315 315 318 317 319
298 298 300 303 303 304 301 299 298 298 297 297 297 296 295 295 296 296 296 296 296 295 297 297 296 296 295 295 296 297 297 299 301 303 303 305 309 312 316 316 317 319 319
297 299 301 302 301 300 298 298 297 297 297 297 296 296 295 295 296 296 296 296 296 295 295 295 295 295 295 295 296 297 297 299 300 302 303 304 307 312 314 318 317 319 319
297 299 299 299 298 298 297 297 297 297 296 296 296 295 295 296 296 296 295 295 295 294 294 294 295 295 294 295 295 296 298 298 300 302 303 304 306 310 315 317 317 319 320
298 298 298 298 299 299 298 297 296 296 297 296 296 295 296 296 295 295 294 294 294 294 294 294 294 294 294 295 295 296 297 298 299 301 303 303 305 308 313 317 316 318 319
302 302 302 302 300 298 297 297 297 297 296 295 295 296 296 295 294 294 294 294 293 294 294 294 294 294 294 295 296 297 298 298 298 300 302 303 303 306 312 316 317 317 317
298 298 297 297 297 297 297 297 296 295 295 296 296 295 294 294 294 293 294 293 293 294 294 294 294 294 294 295 297 297 298 298 297 299 302 303 303 307 311 317 317 318 318
298 297 297 297 297 297 296 295 295 296 296 295 294 294 293 293 293 293 293 293 293 293 293 293 293 293 294 296 296 296 297 297 297 298 301 303 304 306 311 315 317 317 318
297 297 297 297 296 295 295 295 295 295 294 293 293 293 292 292 293 293 293 293 293 293 293 293 293 294 294 295 295 295 296 297 297 298 301 303 304 307 309 313 317 317 317
297 297 296 295 295 295 295 294 294 293 293 292 292 292 291 292 292 293 293 293 293 293 293 293 293 294 295 295 295 295 297 297 297 299 301 303 305 308 310 316 316 316 317
297 295 294 295 295 294 294 292 292 292 292 291 291 291 291 292 292 292 293 292 293 292 292 293 294 295 295 295 295 296 297 297 297 300 301 304 307 309 311 314 317 317 316
294 294 294 294 293 292 292 292 292 291 291 292 291 291 290 291 291 292 292 292 292 292 293 294 295 295 295 295 297 297 297 297 299 300 302 305 307 310 310 313 317 317 317

GFSGL_850_thetae_021.txt.gz
Theta_e
314 312 311 312 313 313 313 314 315 313 311 310 312 310 309 307 306 305 303 302 302 303 303 302 302 301 301 300 300 300 301 302 303 303 303 303 302 302 302 302 303 303 303
313 313 311 310 311 311 312 313 314 312 311 309 310 310 309 307 306 304 303 303 302 302 302 301 301 301 300 300 300 301 302 303 303 302 302 302 302 301 302 302 301 303 304
311 312 311 310 309 310 311 312 312 312 310 308 308 309 308 307 305 304 303 302 302 302 302 301 301 301 300 300 301 302 302 302 302 302 302 302 302 302 302 301 301 302 303
309 311 312 309 309 309 310 310 311 311 310 308 307 308 308 307 305 303 302 302 302 301 301 301 300 300 300 301 302 302 302 302 301 301 301 300 301 301 302 302 304 303 303
309 310 310 310 307 308 309 309 310 310 309 308 307 307 307 306 304 303 302 301 301 301 301 300 299 300 301 302 302 301 301 301 301 300 301 300 301 301 302 303 303 303 304
309 308 309 309 307 307 307 308 309 309 308 307 306 306 306 304 304 302 301 300 300 300 301 300 300 301 302 302 301 301 301 301 300 300 301 300 301 302 302 302 303 303 304
309 309 309 307 307 306 306 307 308 308 308 307 306 305 304 304 303 302 300 299 300 301 300 301 301 301 301 300 300 301 300 301 301 302 301 302 302 302 302 303 304 305 305
308 308 308 306 306 306 306 306 307 308 307 306 305 304 304 303 302 301 299 298 300 301 301 301 301 301 301 300 300 300 301 301 301 301 302 302 302 302 304 304 304 304 306
308 307 307 305 304 304 305 306 306 307 307 306 305 304 303 302 302 301 299 297 299 301 301 301 301 301 301 300 300 300 301 301 300 301 301 301 303 303 304 304 305 308 310
307 306 305 303 303 301 305 305 306 307 306 305 304 303 302 302 302 300 299 299 301 301 301 300 300 300 299 298 299 301 301 300 300 298 300 302 303 305 307 308 311 311 312
305 304 304 301 300 300 304 305 305 306 306 305 304 303 302 302 302 300 298 299 301 300 300 300 301 301 300 299 298 300 300 299 297 301 301 303 304 306 312 314 313 312 309
303 303 302 300 299 300 303 305 305 305 305 304 303 302 302 301 301 299 298 297 300 300 300 300 302 301 300 299 300 298 298 297 301 300 302 303 304 307 313 314 315 314 314
302 302 300 300 302 302 304 305 305 305 305 304 303 302 301 301 300 299 298 297 296 297 300 301 301 301 299 298 300 299 298 300 300 301 302 303 304 307 312 315 315 316 318
302 301 299 302 306 304 303 304 304 305 304 303 302 301 301 300 300 299 297 296 296 296 296 297 298 299 299 299 299 299 299 300 300 300 302 303 305 309 313 316 318 318 320
301 300 299 304 304 302 303 303 304 304 303 302 301 301 300 300 299 299 297 297 298 299 300 300 300 300 300 300 299 299 299 299 299 300 301 304 304 309 313 316 318 318 319
298 298 299 301 303 303 302 302 302 303 303 301 301 301 300 299 299 297 297 297 297 298 299 299 299 299 299 299 299 298 298 299 298 300 301 303 303 307 311 316 318 319 320
298 297 299 299 301 302 302 301 302 302 301 300 300 301 300 299 297 296 295 295 295 296 297 298 299 299 299 299 298 298 298 298 298 300 301 303 303 306 310 314 316 317 319
298 298 298 299 300 301 302 301 300 299 299 299 299 298 297 296 296 295 295 296 297 297 297 298 298 298 298 298 297 297 297 297 297 299 300 302 303 304 309 312 315 316 318
298 297 297 298 299 300 300 299 298 298 297 297 297 296 296 295 295 295 296 297 298 298 298 297 297 297 297 297 297 296 296 296 298 299 300 301 303 303 307 310 313 316 318
298 297 297 299 300 300 300 300 299 298 297 297 297 297 295 295 295 296 296 296 298 298 297 297 297 297 297 297 297 296 297 298 298 299 299 300 302 303 305 309 312 314 315
297 297 297 297 299 299 298 298 298 298 298 297 297 296 295 296 297 297 297 297 297 297 297 296 296 296 296 296 296 296 297 298 298 298 299 299 300 302 304 306 310 313 316
298 298 297 297 297 297 297 297 297 297 296 296 296 295 295 296 297 296 296 296 296 296 296 296 296 296 296 296 297 297 297 297 297 298 298 298 299 302 303 305 309 312 315
299 299 299 299 300 300 300 300 297 296 297 297 296 296 296 296 296 296 295 296 295 295 295 295 295 295 296 296 296 296 296 296 296 297 298 297 298 300 302 304 307 311 314
297 297 298 299 298 297 296 296 296 296 296 296 296 295 295 295 295 295 295 295 295 295 295 295 295 295 295 296 296 296 296 296 296 296 297 297 298 300 302 303 306 309 312
297 297 297 297 296 296 296 295 295 296 295 295 295 294 294 294 294 294 294 294 294 294 294 294 294 294 296 296 297 296 296 296 295 296 297 297 298 300 301 303 305 309 312
295 294 295 295 295 295 295 295 294 294 294 293 293 293 293 293 293 293 292 293 293 293 294 294 294 294 296 296 295 295 294 294 295 295 296 296 299 301 301 302 304 307 311

GFSGL_850_thetae_024.txt.gz
Theta_e
306 308 310 311 312 310 311 312 317 318 317 315 312 312 312 310 309 308 308 308 306 303 302 301 301 301 301 301 300 299 299 300 300 301 302 303 303 302 302 302 301 301 302
306 307 307 310 311 311 309 310 312 315 314 315 312 311 312 310 308 308 308 308 306 304 302 301 301 301 300 299 299 299 299 301 302 303 303 302 302 301 302 301 300 301 302
307 307 308 309 310 311 309 309 309 311 314 315 313 311 310 309 308 307 308 308 305 303 302 301 301 300 300 300 300 300 301 302 302 302 302 302 301 301 300 301 301 301 302
306 307 309 309 308 308 309 309 308 310 313 314 313 310 310 309 308 307 307 306 305 303 302 301 301 301 301 300 299 300 301 302 302 301 301 300 300 300 300 300 301 302 302
305 305 307 308 308 307 308 309 308 308 310 313 312 310 309 308 307 306 306 306 304 302 302 301 301 300 300 299 300 300 300 300 300 300 300 300 300 300 301 301 302 302 302
304 304 306 308 308 307 306 307 308 307 309 311 311 309 309 307 306 306 305 305 303 302 301 301 300 300 300 300 301 302 302 302 301 301 300 301 301 301 302 302 303 302 303
303 304 304 307 308 307 306 305 307 307 308 309 310 308 308 306 305 305 304 304 303 301 301 300 300 300 301 301 301 300 301 301 301 302 302 301 301 302 302 301 303 305 305
303 303 304 307 307 306 305 304 304 306 307 308 309 308 307 306 305 304 303 303 302 300 299 300 300 301 301 301 300 299 299 298 300 302 301 301 301 301 301 303 303 303 304
302 303 306 306 306 304 305 303 303 306 306 307 309 307 306 305 304 304 303 302 300 299 300 301 301 301 300 300 300 299 298 299 301 299 297 297 300 302 303 303 304 303 304
302 304 305 303 303 303 303 302 301 304 306 307 308 307 305 304 304 303 302 301 299 299 300 300 301 300 300 300 299 297 298 299 298 296 298 299 302 305 306 306 307 305 305
301 303 303 303 302 302 302 300 300 303 306 306 307 306 305 304 304 303 301 299 298 298 300 301 300 301 301 301 300 298 299 300 297 300 300 300 303 305 309 312 313 313 307
300 301 301 301 301 302 300 300 300 302 305 306 307 305 304 304 303 302 299 298 299 300 300 300 300 301 301 301 299 298 300 299 299 300 299 302 303 306 310 313 312 315 313
300 300 300 301 301 301 299 301 300 301 304 306 306 304 303 303 303 302 298 299 300 300 300 300 300 301 301 300 298 300 298 298 299 300 298 302 303 306 311 314 315 316 318
299 299 299 301 301 300 303 305 302 303 304 305 305 303 302 302 302 300 298 299 299 299 298 298 299 299 298 299 300 299 299 298 299 299 299 302 304 307 312 313 317 317 317
298 298 300 300 299 300 303 304 304 304 305 305 304 303 302 302 302 300 298 297 297 296 296 296 300 300 299 300 300 299 298 298 299 298 300 301 304 307 312 313 317 317 317
298 299 300 299 298 299 302 303 304 303 304 305 303 302 301 302 302 300 298 297 296 296 296 299 300 300 299 299 299 298 297 297 298 297 300 301 304 306 310 313 317 316 317
297 299 299 298 298 299 301 302 303 303 304 303 302 301 301 302 301 298 298 297 297 297 296 298 299 299 299 299 298 297 297 297 296 297 300 301 303 305 307 312 315 316 315
299 299 297 298 298 298 301 302 301 303 302 301 301 301 301 300 299 298 297 296 296 295 296 297 298 299 298 298 297 297 296 296 297 298 299 300 302 305 306 310 313 315 317
299 298 297 297 297 299 301 300 300 300 300 300 300 299 299 298 297 296 295 295 296 297 297 298 298 297 297 297 297 296 297 297 297 298 299 299 301 304 305 307 311 314 316
298 297 297 298 299 300 300 299 299 299 299 299 298 297 296 295 295 295 295 297 298 298 298 297 297 297 297 296 296 296 297 297 298 297 298 299 300 303 304 306 309 313 315
297 297 298 299 299 299 299 299 299 298 297 297 296 295 295 295 295 295 296 297 298 298 297 296 296 296 296 296 296 296 297 297 297 297 297 298 299 300 304 305 307 311 314
297 297 297 298 298 298 298 298 298 298 297 297 297 296 296 296 297 297 297 296 297 296 296 296 296 296 296 296 296 296 297 296 296 296 296 297 298 298 302 305 306 310 312
297 297 297 298 298 298 298 297 297 297 297 296 296 296 297 297 297 296 296 296 296 296 296 296 295 295 295 295 296 296 296 296 296 296 296 296 296 297 300 303 305 308 311
297 297 298 298 298 298 299 299 298 297 297 296 296 296 296 296 296 296 296 295 295 295 295 295 295 295 295 295 296 296 297 297 296 295 295 295 296 297 299 302 304 306 310
297 297 296 296 296 296 296 296 296 296 296 295 295 295 295 295 295 295 295 295 295 294 294 294 294 294 294 295 296 297 296 295 295 294 294 295 295 296 299 301 303 305 307
294 294 295 296 296 295 295 295 295 295 295 294 294 294 294 293 294 294 294 294 294 294 294 294 294 294 295 295 295 295 294 294 294 294 294 295 295 297 298 300 302 304 306

GFSGL_850_thetae_027.txt.gz
Theta_e
304 306 306 307 307 307 308 309 311 309 309 313 318 319 317 316 316 315 311 310 308 308 307 306 305 303 301 301 300 300 300 300 300 298 299 300 301 302 301 301 300 300 299
305 305 305 304 306 307 308 308 307 309 308 309 312 317 316 315 315 314 311 309 308 307 307 306 304 302 301 301 300 300 299 299 299 300 300 301 301 301 301 300 300 299 300
303 303 304 304 305 307 307 306 307 307 308 309 310 312 315 314 313 313 312 309 308 307 307 305 304 302 301 301 300 299 299 299 300 301 302 301 301 300 299 298 299 300 301
301 303 303 303 304 303 306 307 308 306 308 309 309 309 312 314 312 312 311 309 308 307 306 304 303 302 301 300 299 300 299 300 300 301 301 301 299 298 299 300 300 300 301
302 302 302 303 303 303 304 306 307 306 306 308 309 308 311 312 312 311 310 309 307 307 306 303 302 302 301 300 300 300 299 299 300 301 300 300 299 300 301 300 300 301 302
302 302 302 303 303 302 304 307 306 306 305 307 308 307 309 310 312 311 311 309 307 306 304 303 302 302 300 300 300 299 299 299 301 302 301 301 301 301 301 301 301 302 300
301 301 303 302 301 303 306 305 304 305 305 305 306 308 308 310 311 310 310 308 307 305 304 302 302 301 300 300 300 302 303 302 301 301 300 300 301 300 301 300 300 301 303
301 301 300 301 302 305 304 303 302 303 303 303 304 307 308 309 310 309 308 307 306 304 303 302 301 300 300 300 301 301 300 299 299 298 300 301 299 297 299 302 303 303 303
301 300 301 301 301 302 302 301 302 302 303 302 303 306 307 308 309 308 307 306 305 303 302 301 300 300 300 301 301 300 298 298 297 298 298 296 297 299 302 303 304 303 303
300 301 300 299 300 301 300 300 301 302 301 301 302 306 306 307 308 307 306 305 303 302 301 301 300 300 301 301 299 299 298 297 298 297 296 297 298 303 305 306 305 304 304
300 300 299 299 300 299 300 300 301 301 300 300 301 306 305 306 307 306 305 304 303 302 300 300 300 300 300 299 300 300 298 298 299 296 296 297 299 304 306 310 313 308 305
299 299 299 299 298 299 299 300 300 300 299 300 301 305 304 306 307 305 305 304 303 301 300 299 300 300 300 300 301 299 298 300 298 296 297 297 302 305 309 313 315 314 315
298 298 298 297 298 298 299 300 299 301 300 301 302 304 304 305 305 305 304 303 302 300 299 300 300 300 300 300 300 299 298 298 297 297 297 297 302 305 311 313 316 316 315
296 296 295 296 298 299 300 300 299 302 303 302 303 304 304 305 305 303 302 301 300 299 301 300 300 300 300 299 298 299 299 298 297 297 297 299 303 307 312 313 315 317 315
295 295 296 297 298 299 299 299 299 304 303 303 304 303 304 304 304 303 302 299 300 300 300 300 299 299 298 299 300 299 299 297 297 296 297 300 303 307 311 313 315 316 316
294 294 296 296 298 299 298 298 300 304 304 303 304 301 303 305 304 303 301 299 300 300 300 298 296 298 299 299 299 299 297 297 296 295 299 300 303 306 310 314 315 316 315
294 295 295 297 299 298 298 298 299 304 303 303 303 301 303 303 303 302 300 299 299 298 296 296 298 299 299 299 299 297 296 295 297 298 299 300 303 305 309 313 314 315 315
295 295 296 298 298 297 298 298 301 303 302 304 301 301 303 303 302 301 299 298 297 297 297 297 298 298 299 298 298 296 296 297 297 298 299 299 303 305 308 312 314 315 317
295 296 297 297 296 296 298 300 302 301 302 302 300 301 303 303 301 300 298 297 297 297 297 297 298 298 298 298 296 295 297 297 297 297 298 299 301 304 306 310 312 315 315
297 297 297 297 297 297 299 301 301 301 302 302 301 301 301 300 299 298 298 297 295 296 297 298 298 297 297 296 295 296 297 297 297 296 297 298 299 301 305 307 311 315 315
297 297 298 299 299 299 299 299 299 300 300 300 300 300 299 299 298 297 295 296 298 298 298 297 297 297 296 296 295 296 296 297 297 296 296 296 299 299 303 306 308 313 314
297 297 298 298 298 298 298 299 299 299 299 299 298 298 298 297 295 295 297 298 298 298 297 296 296 296 296 295 295 296 296 296 296 296 295 295 296 297 301 304 307 311 313
297 296 297 297 298 298 298 298 298 299 297 296 296 296 295 296 296 297 297 297 297 296 296 296 296 296 295 295 296 296 296 296 296 296 295 295 294 296 299 302 306 309 311
297 297 298 298 298 298 298 298 298 298 298 297 297 297 296 297 296 296 296 296 296 296 296 296 295 295 295 295 295 296 296 297 296 295 294 294 294 295 298 301 304 307 309
296 296 296 297 297 297 297 297 296 296 296 297 296 296 296 296 296 296 295 295 295 295 295 294 294 294 294 294 295 295 296 295 295 293 294 293 294 294 297 300 302 305 307
295 295 295 295 296 296 296 296 296 296 296 295 295 295 295 295 295 295 295 295 295 294 294 294 294 293 294 294 295 295 295 294 293 293 294 294 295 296 297 299 301 302 305

GFSGL_850_thetae_030.txt.gz
Theta_e
303 303 303 301 301 304 303 304 307 307 305 306 306 308 309 311 313 314 316 316 317 316 313 311 309 308 306 304 303 302 302 301 300 299 299 298 299 299 300 301 300 299 299
303 302 300 300 302 303 302 304 304 304 305 305 307 306 309 310 311 312 313 315 316 315 313 311 309 307 306 304 303 302 301 300 300 299 298 298 299 299 300 300 299 297 297
301 300 301 301 300 301 303 303 303 303 304 306 307 305 306 309 310 310 310 313 315 315 314 311 309 307 306 304 303 302 301 301 300 299 298 299 299 299 300 299 298 298 299
299 300 301 301 301 301 302 303 303 302 304 306 306 305 305 306 309 310 309 311 313 314 314 310 309 307 306 304 302 302 301 300 300 299 299 299 299 300 299 299 299 299 298
299 299 300 301 300 302 302 301 301 305 306 306 304 304 304 305 308 309 310 312 311 313 313 310 308 307 306 304 302 302 301 300 300 299 299 300 300 300 298 299 300 298 296
299 299 299 300 300 301 300 302 304 305 303 302 302 302 303 304 305 309 310 309 310 312 312 309 308 306 305 303 302 301 300 300 299 300 300 301 300 298 300 300 298 296 297
299 299 300 299 300 300 301 301 300 301 301 300 301 302 303 303 305 308 309 308 309 311 311 308 307 305 303 302 302 301 301 300 302 301 300 300 299 299 300 297 296 298 302
298 299 299 299 299 300 300 298 300 301 300 299 300 302 302 303 305 308 309 308 309 311 310 308 306 305 303 302 301 302 303 303 301 300 300 298 298 298 296 297 299 302 304
299 299 299 299 299 300 299 298 300 300 299 299 300 301 301 301 305 308 309 308 306 308 308 306 305 303 302 301 300 300 300 300 300 299 298 298 297 296 297 299 303 303 304
298 298 298 298 299 299 299 299 299 298 298 299 300 301 301 301 305 307 308 308 306 306 306 305 303 302 301 300 300 300 300 299 299 298 298 296 296 296 299 304 306 303 303
298 297 298 299 299 299 298 298 297 297 298 300 300 300 300 301 305 306 308 308 307 306 305 303 302 301 300 300 300 300 299 299 298 299 297 296 295 297 306 308 310 306 304
296 297 298 296 297 297 296 295 295 298 300 300 300 300 301 303 305 306 309 308 306 305 303 302 301 301 300 301 300 300 300 299 300 297 296 296 295 305 308 312 315 314 313
296 296 295 297 296 296 295 297 297 299 299 299 301 301 301 303 305 309 307 306 305 304 303 302 301 300 301 300 300 300 299 299 298 296 296 295 302 306 312 313 315 315 313
295 295 296 295 295 295 296 297 298 299 298 299 302 301 302 302 305 307 306 304 303 303 302 300 300 300 300 300 300 299 299 298 297 296 295 298 304 308 313 314 315 313 311
295 295 295 294 294 294 295 296 299 299 298 299 303 301 303 303 306 306 305 303 303 301 300 300 300 300 300 299 298 299 299 298 296 295 296 300 305 309 313 314 314 312 311
295 294 294 294 294 295 295 298 298 297 298 303 303 301 302 305 306 306 304 303 301 300 299 300 300 300 298 298 299 299 298 296 295 297 298 300 305 309 313 314 314 312 311
295 295 294 295 295 295 297 298 298 298 302 303 303 301 302 305 305 305 304 302 300 300 300 300 299 297 299 299 299 298 295 296 297 297 298 300 304 309 312 313 314 312 312
294 294 295 295 295 297 298 298 297 298 300 304 302 301 302 304 304 303 301 300 300 300 300 298 297 299 299 299 298 296 296 296 297 297 299 300 304 308 311 313 314 314 313
295 295 295 296 296 296 296 296 297 299 302 301 301 301 303 304 303 302 300 299 300 299 297 297 298 298 299 298 296 296 296 297 296 296 297 299 302 307 310 312 313 314 315
296 296 296 297 297 296 296 298 300 302 300 300 301 303 303 303 303 302 301 299 298 297 297 297 298 298 298 297 295 296 296 296 296 295 296 298 300 304 308 311 313 314 315
296 297 298 299 299 299 300 301 301 300 300 301 303 303 302 302 302 301 299 298 297 296 297 298 298 298 297 296 295 296 296 296 296 295 295 295 298 302 305 308 311 312 314
297 297 297 298 298 298 298 298 299 300 300 301 301 301 302 301 299 299 298 296 296 298 298 298 297 297 296 295 295 296 296 296 295 295 295 294 295 299 303 307 310 312 313
297 297 297 297 297 298 298 298 299 299 300 300 300 299 299 298 297 296 297 298 298 297 297 297 296 296 295 295 295 296 296 296 295 295 294 294 294 295 300 305 307 310 311
297 297 297 297 297 297 297 297 298 299 298 297 296 296 295 296 297 298 297 297 297 296 296 296 296 295 295 295 295 296 296 295 295 294 293 293 293 293 296 302 305 306 309
296 297 297 297 297 297 297 297 297 297 297 297 297 297 297 297 297 296 296 296 296 296 296 295 295 294 294 294 295 295 295 295 294 293 293 293 293 294 295 298 301 304 306
295 295 296 296 296 297 297 297 296 297 296 296 296 296 296 296 296 296 295 295 295 295 295 295 294 294 294 294 295 295 295 294 293 293 293 293 294 295 295 296 299 301 303

GFSGL_850_thetae_033.txt.gz
Theta_e
303 302 301 301 300 299 299 298 299 301 303 302 303 304 304 305 305 308 309 311 312 312 313 313 315 315 313 311 309 307 306 305 304 303 301 300 299 299 298 299 299 300 300
302 301 300 298 298 299 300 299 301 302 303 303 302 302 303 305 306 304 308 310 310 310 310 311 314 315 313 311 309 307 306 304 303 302 301 300 299 298 298 299 299 299 299
301 301 300 299 299 299 301 299 300 300 302 302 302 303 306 306 304 303 303 308 309 309 310 309 311 314 313 311 308 307 305 304 303 302 301 300 299 298 298 299 299 299 298
301 301 300 299 299 299 300 299 300 300 300 300 304 305 305 304 303 302 302 304 307 309 310 309 310 312 312 311 309 307 305 304 303 302 301 300 299 298 299 299 300 299 298
301 300 300 300 299 299 299 298 300 300 301 305 304 302 301 301 301 300 301 302 304 308 310 310 309 314 312 311 309 307 305 304 302 301 300 300 299 298 299 300 299 297 297
299 301 300 300 299 297 299 299 299 299 301 299 299 300 300 299 299 300 303 303 303 308 309 310 312 310 310 309 308 306 305 303 302 301 300 299 298 299 300 299 297 298 298
299 299 299 299 298 298 299 299 298 300 300 299 300 301 300 298 299 301 304 303 304 307 309 308 310 308 309 308 307 305 303 302 301 300 300 299 300 299 299 297 297 297 296
298 298 299 298 298 298 298 298 298 300 299 299 299 299 298 298 300 302 303 303 304 308 309 309 309 307 308 307 306 304 302 302 300 300 300 301 300 299 298 297 296 297 297
296 297 297 297 298 298 298 298 299 299 299 298 298 297 297 299 300 301 302 301 304 306 308 306 308 308 307 306 304 303 302 301 301 303 303 302 299 298 297 297 297 297 299
295 295 296 296 297 297 297 298 299 298 298 297 296 295 298 300 300 300 301 302 305 307 309 309 308 306 306 305 303 302 301 300 300 301 300 299 298 297 296 296 297 302 305
294 295 295 296 296 296 298 297 296 297 296 295 295 297 299 299 300 300 300 302 306 307 303 306 304 305 305 303 302 300 300 300 300 299 299 298 297 295 295 303 307 309 307
294 295 295 295 295 296 296 296 296 295 295 297 297 299 299 301 302 301 302 306 307 306 307 306 305 303 302 301 300 300 300 300 300 298 298 296 295 296 305 309 312 311 309
294 294 294 295 295 295 296 295 295 295 296 297 299 299 299 301 301 301 305 306 307 306 307 304 303 302 301 300 300 300 300 300 299 298 297 295 297 304 310 312 312 311 311
294 294 293 294 295 295 294 294 293 295 295 297 298 298 299 301 301 303 304 306 306 305 303 302 301 300 300 300 300 300 300 298 298 296 295 296 304 309 311 310 311 311 310
293 293 293 294 294 293 293 293 294 295 296 299 298 298 299 301 302 305 307 304 304 304 301 300 300 301 300 300 300 299 299 299 296 295 296 302 306 309 310 311 311 311 310
293 294 294 294 294 294 294 294 295 297 298 298 297 299 301 301 302 305 305 303 304 301 300 300 300 300 300 300 298 299 299 296 296 296 300 303 305 308 310 311 311 311 310
295 293 295 294 294 294 295 295 296 297 297 298 302 303 302 302 306 305 303 303 301 300 301 300 300 300 299 298 299 299 296 296 296 297 300 301 306 308 310 312 311 311 310
296 295 296 295 295 295 295 296 297 297 297 301 303 302 303 304 303 303 303 302 300 300 300 300 299 298 298 299 298 296 296 296 296 298 299 301 305 308 311 312 312 311 310
295 296 295 296 296 297 296 296 296 296 299 302 301 301 305 303 303 304 302 301 300 300 300 298 297 298 299 298 296 296 296 295 295 297 298 300 304 307 311 312 312 311 310
297 297 297 298 298 297 297 296 296 299 301 300 300 303 303 302 302 302 301 300 300 299 298 298 299 299 298 297 296 296 296 295 295 295 295 298 302 306 310 311 312 312 311
297 297 298 298 299 300 301 301 300 300 300 301 303 303 302 302 302 301 300 300 298 297 298 298 298 298 297 296 296 296 296 295 295 294 294 296 299 304 308 311 312 311 310
297 297 297 297 298 298 299 299 300 301 302 302 302 302 303 302 301 300 299 297 296 298 298 298 298 297 296 295 296 296 295 295 295 294 294 294 295 302 306 309 311 312 312
297 297 297 297 297 297 298 299 299 300 301 301 300 301 301 300 300 298 297 296 297 298 298 297 297 296 295 296 296 296 295 295 294 294 293 293 293 298 303 306 309 311 313
296 296 296 297 297 298 298 299 299 299 299 298 299 299 299 297 297 297 298 298 297 297 297 296 296 295 295 295 295 295 294 295 294 293 293 293 293 295 301 304 306 309 311
295 296 296 296 297 297 297 297 297 296 296 296 296 296 297 297 297 297 297 296 296 296 296 295 295 295 295 295 294 294 294 294 293 293 293 293 293 294 296 301 303 305 308
295 295 296 296 296 296 296 297 297 297 297 297 296 297 297 297 296 296 296 296 296 295 295 295 294 294 294 294 294 294 294 293 293 293 293 293 295 294 294 296 300 303 305

GFSGL_850_thetae_036.txt.gz
Theta_e
301 300 300 301 301 301 301 298 299 299 299 298 301 302 302 302 301 301 303 305 305 308 310 311 311 312 313 314 312 310 311 310 308 307 305 304 302 300 299 299 299 298 298
299 301 300 300 300 301 300 299 299 299 299 300 301 301 301 302 301 304 305 305 303 303 308 309 310 310 310 311 312 310 311 310 309 307 305 304 303 301 300 299 299 298 299
300 300 298 300 300 301 299 299 299 298 298 298 299 299 300 301 305 306 304 305 304 301 303 308 309 309 310 310 310 311 310 310 309 307 305 304 302 301 300 299 298 298 298
299 298 299 300 298 299 300 300 299 298 299 299 299 300 303 304 303 302 301 302 302 302 300 303 306 309 309 309 309 311 310 309 308 307 305 303 302 301 300 299 298 298 298
298 298 299 299 299 298 299 299 299 298 298 299 298 301 303 301 299 300 300 299 299 299 300 301 304 307 309 310 311 311 310 308 307 306 304 303 302 301 300 299 298 298 299
296 296 296 297 298 298 298 298 298 297 298 299 298 300 300 299 298 301 300 299 299 301 302 302 303 306 308 310 311 312 310 309 307 306 305 303 302 301 299 299 299 300 299
294 294 295 295 296 297 297 298 297 297 298 298 298 299 299 299 298 299 299 300 301 302 303 305 303 304 307 309 308 308 308 309 307 307 305 303 301 300 299 299 299 299 298
293 293 294 294 295 295 296 297 297 297 297 298 298 299 299 298 297 297 299 300 301 302 303 304 302 305 308 309 310 307 307 307 305 304 302 301 300 300 300 299 299 298 297
293 294 294 294 294 295 295 296 296 296 297 297 298 298 297 296 295 295 298 300 301 301 302 302 302 307 308 308 309 306 306 305 304 303 301 300 300 301 300 299 298 299 296
294 294 294 294 294 294 295 296 296 296 297 297 297 296 296 295 295 296 299 300 300 301 302 302 305 307 308 308 307 305 306 304 303 301 301 300 301 300 299 298 297 296 295
295 295 294 295 293 295 294 295 295 296 295 296 296 296 295 296 296 299 299 300 301 302 302 303 305 306 307 306 306 305 305 303 302 302 301 300 299 298 298 296 295 299 304
295 295 293 294 294 294 294 295 295 295 295 295 295 294 295 296 299 299 300 301 301 301 301 304 305 305 306 306 306 304 303 302 301 300 300 299 298 297 295 298 306 309 308
296 295 294 293 294 293 293 294 295 295 294 293 294 295 295 298 298 299 301 301 302 303 303 304 305 306 305 306 304 302 301 300 300 299 298 297 295 296 304 309 311 309 307
295 295 295 293 293 294 294 293 293 293 293 294 294 295 297 298 298 300 300 302 304 301 300 304 305 305 304 302 301 300 300 300 299 298 296 295 299 306 309 309 310 311 308
295 295 295 293 294 294 294 293 293 293 294 294 296 297 299 299 299 299 301 303 302 302 304 306 304 302 300 300 300 300 299 299 298 295 295 301 306 309 309 311 311 310 308
295 296 295 295 294 294 294 294 294 294 295 296 298 298 298 299 300 301 304 303 302 305 304 302 301 301 300 300 300 299 299 296 296 296 301 304 307 309 311 311 310 309 307
295 295 296 296 296 296 296 295 295 296 297 297 297 300 301 301 302 303 303 302 301 301 300 300 301 300 300 299 299 298 296 296 296 300 301 305 308 310 311 310 310 309 308
296 297 297 297 297 297 296 296 295 296 296 298 303 302 302 304 302 302 301 301 300 300 300 300 300 300 298 299 297 296 296 296 298 299 301 306 308 310 310 310 310 308 308
296 297 297 297 298 297 297 297 297 296 297 300 300 303 303 302 301 301 300 300 301 300 300 300 298 299 298 296 296 296 295 296 297 298 302 306 308 308 309 311 311 310 307
296 297 296 297 298 299 299 296 297 299 300 300 302 303 303 302 301 301 301 300 300 300 298 298 299 298 297 296 296 296 295 294 295 297 301 306 307 308 308 310 310 310 308
296 296 296 297 298 300 300 300 300 300 300 301 302 303 301 301 300 300 300 299 299 298 298 298 298 297 296 296 296 295 294 294 294 295 299 304 306 308 309 310 310 310 310
296 296 297 296 297 298 299 299 300 300 301 301 301 301 300 300 300 299 299 298 298 298 298 298 297 296 296 296 296 295 294 294 293 293 295 300 305 307 308 310 310 310 310
295 296 297 297 297 298 299 299 300 300 300 301 301 300 300 299 299 297 297 298 297 298 297 297 296 296 296 296 295 295 294 293 293 293 293 297 304 307 307 309 310 311 310
294 296 296 296 297 297 297 298 298 300 300 299 299 298 298 299 298 297 298 298 297 297 296 296 296 296 296 295 294 294 293 293 293 293 293 295 301 305 306 308 309 311 311
294 295 295 296 296 296 297 297 297 298 298 297 297 297 297 297 297 297 297 297 296 296 295 295 295 295 295 295 294 293 293 293 292 293 293 293 297 301 304 305 309 310 311
293 294 295 295 295 296 296 296 296 296 297 297 297 298 298 297 297 296 296 296 295 295 294 294 294 294 294 294 293 293 293 293 292 294 294 293 294 296 301 303 305 309 310

GFSGL_850_thetae_042.txt.gz
Theta_e
298 298 298 299 299 299 299 300 300 300 299 300 300 301 301 301 301 301 301 303 304 304 304 305 306 307 308 309 310 310 309 310 310 311 312 313 309 310 310 310 306 305 304
298 298 298 298 298 298 299 299 299 299 299 300 299 300 300 300 301 301 301 302 302 303 303 305 306 306 306 307 309 310 309 309 310 310 312 312 308 308 311 310 306 304 304
297 297 297 297 297 297 297 298 298 298 299 299 299 299 300 300 300 301 301 301 301 302 303 304 305 305 305 305 307 309 309 309 307 309 312 311 308 307 307 309 306 304 303
297 296 296 296 296 296 296 296 297 297 298 298 299 299 299 300 301 301 301 301 302 303 303 304 304 304 305 305 306 306 308 308 307 308 310 311 308 306 305 308 306 303 303
296 296 296 296 296 296 295 296 296 296 296 297 297 298 298 299 299 299 301 302 302 302 303 303 303 303 303 304 305 306 307 307 306 306 308 309 308 306 304 305 306 305 303
296 296 296 296 296 295 295 295 295 295 295 295 296 297 298 298 299 299 300 301 301 302 301 302 302 302 302 303 304 305 306 306 306 307 308 309 307 306 305 306 306 305 305
295 296 296 296 296 296 296 295 295 295 296 296 296 297 297 298 298 299 300 301 301 301 301 302 302 301 301 302 303 304 305 307 307 307 307 309 309 309 306 305 306 305 305
295 296 295 295 295 295 296 296 295 295 295 295 296 296 297 297 298 299 300 300 301 301 301 301 301 301 301 301 302 303 305 306 307 309 308 309 308 310 306 306 307 306 305
294 296 295 295 295 296 296 296 295 295 294 295 295 296 296 297 297 298 299 300 300 300 300 300 300 300 300 301 301 302 303 305 308 306 308 309 309 310 305 305 305 305 305
295 294 294 294 295 295 295 296 295 294 294 294 295 295 296 296 297 298 298 299 299 299 299 299 299 300 300 301 301 302 303 305 306 306 308 308 307 309 304 304 304 305 304
294 294 295 295 295 295 296 295 295 294 294 293 294 296 296 296 296 297 298 298 298 298 298 299 299 300 300 301 302 302 303 305 305 306 307 308 307 306 302 302 304 304 304
294 294 294 295 296 296 295 295 294 294 294 294 295 295 295 295 296 296 297 297 297 297 298 299 300 300 301 302 302 303 305 304 306 307 306 306 304 303 304 303 303 301 300
294 294 295 295 296 296 296 295 295 294 295 295 295 294 294 295 295 296 296 297 298 300 299 300 301 301 302 303 303 303 303 305 306 305 305 304 304 304 303 303 301 299 298
293 294 295 295 296 296 297 296 296 295 295 295 295 295 294 295 296 297 297 298 299 299 301 301 301 302 303 303 303 303 305 307 306 304 304 304 303 302 301 300 299 297 302
293 294 294 295 295 296 296 297 297 296 295 296 296 296 296 296 296 297 298 299 300 300 300 301 300 301 304 303 305 306 306 305 304 302 303 302 301 300 300 302 301 308 308
293 294 295 295 296 296 296 297 297 297 297 296 296 296 297 297 298 299 299 300 300 300 300 303 302 303 301 305 305 304 304 302 302 301 301 300 300 302 302 306 308 308 308
294 295 295 295 296 296 298 298 297 298 297 298 299 299 300 303 302 302 302 302 301 301 301 302 301 302 303 301 300 301 301 300 300 299 299 301 300 305 308 309 309 308 307
294 295 294 295 296 298 299 298 297 298 299 302 302 302 301 301 301 301 301 301 300 300 300 300 300 300 300 300 299 299 298 297 298 299 301 304 307 308 309 309 309 307 308
294 295 294 296 297 298 300 300 300 300 300 300 301 300 300 300 300 300 300 300 300 299 299 299 299 299 299 298 297 297 297 298 300 303 304 306 307 308 309 309 308 309 308
295 295 295 296 297 298 299 300 300 300 300 299 299 299 299 300 299 299 300 299 299 299 298 298 297 296 296 296 296 296 298 300 302 303 304 305 307 309 309 308 309 307 308
294 295 296 296 297 297 298 299 299 300 300 299 299 299 299 299 299 298 298 298 297 296 296 296 295 295 294 294 294 295 298 301 302 303 303 304 306 309 308 309 307 307 307
294 295 296 296 297 298 298 299 299 299 298 298 299 299 298 298 298 298 298 297 296 296 296 295 295 294 294 293 293 294 298 301 301 302 303 304 308 310 308 308 307 307 306
294 295 296 296 296 298 299 298 298 298 298 298 298 299 298 297 298 297 296 296 296 296 296 295 295 294 293 293 293 293 296 300 300 302 304 306 308 310 309 308 308 307 306
294 295 296 296 296 297 297 297 297 298 297 298 298 298 297 297 297 296 296 296 296 296 295 295 294 293 293 293 293 293 294 299 301 303 305 307 309 310 310 309 308 307 307
293 294 295 295 296 296 297 297 297 296 297 297 297 297 297 297 296 296 296 296 296 295 294 294 293 293 293 293 293 292 293 298 301 303 305 307 308 308 309 310 309 308 307
292 293 294 295 295 296 296 296 297 297 297 297 296 296 296 295 295 296 296 295 295 294 294 293 293 293 292 292 292 292 293 296 301 303 305 306 307 308 309 309 310 310 309

GFSGL_850_thetae_048.txt.gz
Theta_e
299 299 299 299 299 299 299 299 298 298 298 298 298 298 298 299 299 301 301 301 302 301 302 303 302 302 303 307 307 307 308 308 310 309 309 310 312 312 312 311 311 311 311
299 298 298 298 299 299 298 298 299 299 299 298 298 297 297 297 297 298 299 301 301 301 302 303 302 302 304 306 306 306 306 307 308 310 310 309 312 313 311 311 310 310 310
298 298 298 298 298 298 298 298 298 297 297 297 296 297 296 296 296 297 297 299 300 300 301 302 302 302 303 304 305 305 306 306 306 308 309 309 309 311 311 312 309 309 308
298 298 298 298 297 297 297 296 296 295 296 296 296 296 296 296 296 296 297 297 299 299 300 301 302 302 302 303 304 305 305 305 305 306 307 309 307 308 310 311 310 309 308
297 297 297 296 296 296 295 295 295 296 295 295 296 296 296 296 296 296 296 297 298 299 299 301 301 302 302 302 302 303 304 305 306 305 306 307 307 307 308 310 309 309 309
297 297 296 296 295 294 294 295 295 295 295 296 295 296 296 296 298 296 298 298 297 297 299 299 299 300 302 303 302 305 303 304 305 305 305 306 307 306 306 308 309 308 307
296 296 294 294 294 294 295 295 295 295 295 295 296 295 297 295 295 297 297 298 298 298 298 299 300 299 300 300 301 305 303 304 304 304 304 305 306 305 305 307 309 308 307
295 294 294 294 294 295 294 294 294 295 294 295 295 295 295 294 296 296 297 298 297 298 298 299 300 299 300 300 300 301 303 303 302 302 302 304 305 305 305 306 308 308 307
294 294 294 295 294 294 294 294 294 295 295 295 295 297 296 294 295 295 297 297 297 297 298 298 299 299 299 300 302 302 302 302 302 303 304 304 304 304 304 306 308 307 307
294 293 294 293 293 294 294 294 294 295 295 296 296 296 296 295 294 295 297 297 297 297 297 298 298 299 299 301 302 302 301 301 301 301 301 300 304 305 305 306 307 308 306
293 293 293 293 294 294 294 295 294 295 296 296 296 296 296 295 295 296 297 297 297 297 297 298 298 298 300 302 302 301 301 300 300 301 300 300 301 303 305 306 306 308 307
293 293 293 293 294 294 294 295 296 296 296 296 296 297 297 296 296 296 296 297 297 298 297 297 298 299 300 300 301 301 301 300 300 300 300 302 302 304 306 306 307 307 307
293 293 293 294 294 294 295 296 296 296 296 296 297 297 296 297 296 296 296 296 297 297 298 298 298 299 299 300 300 301 301 301 300 300 301 302 303 304 304 304 306 307 307
292 293 293 294 294 294 296 297 297 297 298 298 297 297 297 298 297 297 297 296 296 297 298 299 298 298 297 297 297 299 301 301 301 302 302 303 303 304 304 306 306 307 306
293 293 294 294 294 295 296 298 298 299 300 302 301 299 298 298 298 298 298 297 296 295 296 297 297 298 298 299 299 299 301 301 302 303 304 304 304 304 305 306 306 306 305
292 293 294 294 295 295 297 300 301 299 300 300 300 300 300 300 299 301 303 298 297 297 297 297 297 298 299 299 300 300 301 301 302 303 304 304 303 304 305 305 304 304 304
293 294 294 294 295 296 298 299 299 299 300 300 300 300 299 299 299 301 302 300 299 299 299 299 300 300 300 300 300 300 300 301 303 305 304 303 303 304 305 305 304 304 304
293 294 294 294 295 297 298 298 299 299 299 299 299 299 298 298 298 299 300 301 300 299 299 299 299 299 300 301 301 301 300 300 301 302 303 303 305 304 303 302 302 302 302
293 294 294 295 297 298 298 298 299 299 298 298 298 298 298 298 298 297 297 297 297 297 297 297 297 297 298 298 299 300 301 302 303 303 302 302 302 302 302 302 302 302 302
293 294 295 295 296 298 298 298 298 298 297 296 297 297 297 296 296 295 295 295 295 295 295 295 296 296 297 297 298 299 299 299 299 300 300 300 300 301 302 301 301 302 305
293 294 295 296 296 297 297 298 298 297 297 296 296 296 296 296 295 295 295 295 294 295 295 295 295 296 297 298 299 299 299 299 299 300 300 299 300 300 299 302 303 307 307
293 294 295 295 296 296 297 297 297 297 296 296 296 296 296 296 295 295 295 294 294 294 294 294 294 294 295 297 298 299 299 299 300 302 302 303 304 303 304 306 308 307 306
292 293 294 295 295 296 296 296 296 296 296 295 295 296 295 295 295 295 294 294 293 293 293 293 292 293 294 296 297 298 298 299 300 300 302 304 305 307 308 308 308 307 306
292 292 293 294 294 295 295 296 296 295 295 295 295 295 295 294 294 294 293 293 292 292 291 291 292 292 293 295 297 298 298 299 300 302 304 307 309 309 308 308 307 306 306
291 292 292 293 294 294 295 295 295 295 295 295 295 295 294 294 294 293 292 291 291 290 290 291 291 292 294 296 297 298 299 300 303 305 307 308 308 307 307 307 306 306 307
291 291 292 292 293 293 294 294 294 295 295 294 294 294 294 294 293 293 292 291 290 290 289 290 291 292 293 296 297 299 300 303 305 308 307 308 308 308 307 307 306 307 307